#timestamp,LO_Frequency,Hit,StdDev 
1697198415.8,286046999.5,N
1697198435.6,286046999.3,N
1697198455.5,286046999.4,N
1697198475.3,286046998.9,N
1697198495.2,286046998.9,N
1697198515.0,286046998.4,N
1697198515.9,286046998.4,N
1697198535.7,286047001.1,N
1697198555.6,286046998.8,N
1697198575.4,286046996.9,N
1697198595.3,286046997.9,N
1697198615.1,286046997.8,N
1697198635.8,286046995.6,Y
1697198655.7,286046996.8,P
1697198675.5,286046997.3,P
1697198695.4,286046997.3,P
1697198715.2,286046997.3,Y
1697198735.0,286047001.1,P
1697198735.9,286047001.1,N
1697198755.8,286046999.4,N
1697198775.6,286046999.2,N
1697198795.5,286046996.9,N
1697198815.3,286046997.0,N
1697198835.2,286046997.4,N
1697198855.9,286046998.0,N
1697198875.7,286046995.3,Y
1697198895.6,286046996.5,P
1697198915.4,286046999.2,N
1697198935.2,286046996.5,P
1697198955.1,286046999.5,N
1697198956.0,286046999.5,N
1697198975.8,286046996.6,N
1697198995.7,286046997.2,N
1697199015.5,286046997.7,N
1697199035.3,286046997.2,N
1697199055.2,286046999.5,N
1697199075.9,286046999.5,N
1697199095.7,286046998.9,N
1697199115.6,286046996.5,N
1697199135.4,286046996.8,N
1697199155.3,286046997.3,N
1697199175.1,286046997.4,N
1697199195.8,286046997.1,N
1697199215.7,286046998.0,N
1697199235.5,286046997.8,N
1697199255.4,286046997.5,N
1697199275.2,286046997.4,N
1697199295.0,286046997.3,N
1697199295.9,286046997.3,N
1697199315.8,286046997.1,N
1697199335.6,286046994.9,Y
1697199355.5,286046997.8,P
1697199375.3,286046999.5,P
1697199395.1,286046999.4,N
1697199415.9,286046999.3,N
1697199435.7,286046998.9,N
1697199455.5,286046999.1,N
1697199475.4,286046999.4,N
1697199495.2,286046998.2,N
1697199515.1,286046998.6,N
1697199516.0,286046998.6,N
1697199535.8,286046998.9,N
1697199555.6,286046998.8,N
1697199575.5,286046998.9,N
1697199595.3,286047000.7,N
1697199615.2,286046998.7,N
1697199635.9,286046998.4,N
1697199655.7,286047001.0,N
1697199675.6,286047000.8,N
1697199695.4,286046998.9,N
1697199715.2,286046999.2,N
1697199735.1,286046997.5,N
1697199736.0,286046997.5,N
1697199755.8,286046994.9,Y
1697199775.7,286046999.4,P
1697199795.5,286046999.2,P
1697199815.3,286046999.2,P
1697199835.2,286046999.4,Y
1697199855.0,286047000.8,P
1697199855.9,286047000.8,N
1697199875.8,286047000.4,N
1697199895.6,286046999.7,N
1697199915.4,286046999.9,N
1697199935.3,286047000.2,N
1697199955.1,286047000.8,N
1697199975.8,286047000.8,N
1697199995.7,286046998.5,N
1697200015.5,286046998.2,N
1697200035.4,286046998.2,N
1697200055.2,286046998.9,N
1697200075.0,286046996.9,Y
1697200075.9,286046996.9,P
1697200095.8,286046999.3,N
1697200115.6,286046998.4,N
1697200135.4,286046998.4,N
1697200155.3,286046998.5,N
1697200175.1,286046998.1,N
1697200195.9,286046998.6,N
1697200215.7,286047000.2,N
1697200235.5,286047000.1,N
1697200255.4,286047001.2,N
1697200275.2,286047000.6,N
1697200295.0,286047000.6,N
1697200295.9,286047000.6,N
1697200315.8,286047000.3,N
1697200335.6,286047000.3,N
1697200355.5,286047001.0,N
1697200375.3,286047002.7,N
1697200395.1,286047000.4,N
1697200415.9,286046998.1,N
1697200435.7,286047000.6,N
1697200455.5,286046999.9,N
1697200475.4,286046998.6,N
1697200495.2,286047001.0,N
1697200515.1,286046998.5,N
1697200516.0,286046998.5,N
1697200535.8,286046998.5,N
1697200555.6,286046998.3,N
1697200575.5,286047000.7,N
1697200595.3,286046998.6,N
1697200645.2,286046998.1,E
1697200655.1,286046998.6,N
1697200656.0,286046998.6,P
1697200675.8,286047000.8,P
1697200695.6,286047001.0,N
1697200715.5,286047001.0,N
1697200735.3,286047000.7,N
1697200755.2,286047000.8,N
1697200775.9,286046998.2,N
1697200795.7,286047000.6,N
1697200815.6,286047000.2,N
1697200835.4,286047002.5,N
1697200855.2,286047000.4,N
1697200875.1,286046998.6,N
1697200876.0,286046998.6,N
1697200895.8,286046999.0,N
1697200915.7,286046998.1,N
1697200935.5,286046998.3,N
1697200955.3,286046998.6,N
1697200975.2,286046996.6,N
1697200995.0,286046999.0,N
1697200995.9,286046999.0,N
1697201015.8,286046999.3,N
1697201035.6,286046998.7,N
1697201055.4,286047000.7,N
1697201075.3,286047001.1,N
1697201095.1,286047001.0,N
1697201115.8,286046998.1,N
1697201135.7,286046998.6,N
1697201155.5,286046998.3,N
1697201175.4,286046998.1,N
1697201195.2,286046998.3,N
1697201215.0,286047001.2,N
1697201215.9,286047001.2,N
1697201235.8,286046998.8,N
1697201255.6,286046999.5,N
1697201275.5,286046999.6,N
1697201295.3,286046998.9,N
1697201315.1,286046998.2,N
1697201335.9,286047000.9,N
1697201355.7,286047000.7,N
1697201375.5,286047002.8,N
1697201395.4,286046999.7,N
1697201415.2,286047002.4,N
1697201435.1,286047002.7,N
1697201436.0,286047002.7,N
1697201455.8,286046999.7,N
1697201475.6,286047000.4,N
1697201495.5,286046999.8,N
1697201515.3,286047002.5,N
1697201535.1,286047002.2,N
1697201555.9,286047001.8,N
1697201575.7,286047003.9,N
1697201595.6,286047003.9,N
1697201615.4,286047003.2,N
1697201635.2,286047003.7,N
1697201655.1,286047003.0,N
1697201656.0,286047003.0,N
1697201675.8,286047002.9,N
1697201695.7,286047004.1,N
1697201715.5,286047004.2,N
1697201735.3,286047003.8,N
1697201755.2,286047003.1,N
1697201775.9,286047003.5,N
1697201795.7,286047004.1,N
1697201815.6,286047003.3,N
1697201835.4,286047003.2,N
1697201855.3,286047003.0,N
1697201875.1,286047003.4,N
1697201876.0,286047003.4,N
1697201895.8,286047005.3,Y
1697201915.7,286047001.9,P
1697201935.5,286047002.0,P
1697201955.3,286047004.2,P
1697201975.2,286047001.3,N
1697201995.0,286047004.0,Y
1697201995.9,286047004.0,P
